This is the latest recevied weather packets stored in our database for station/object N8HKU-5. If no packets are shown the sender has not sent any weather packets the latest 10 day(s).
| Time | Temp. | Humidity | Pressure | Rain* | Wind** | Luminosity | Snow |
|---|---|---|---|---|---|---|---|
| 1777596153 | 10° C | 48% | 1011.7 hPa | 0 mm | - | - | - |
| 1777595554 | 10° C | 47% | 1011.6 hPa | 0 mm | - | - | - |
| 1777594953 | 10° C | 47% | 1011.6 hPa | 0 mm | - | - | - |
| 1777594353 | 10° C | 48% | 1011.5 hPa | 0 mm | - | - | - |
| 1777593753 | 10° C | 49% | 1011.6 hPa | 0 mm | - | - | - |
| 1777593153 | 10° C | 47% | 1011.5 hPa | 0 mm | - | - | - |
| 1777592554 | 10.56° C | 47% | 1011.5 hPa | 0 mm | - | - | - |
| 1777591956 | 10.56° C | 45% | 1011.5 hPa | 0 mm | - | - | - |
| 1777591353 | 10.56° C | 45% | 1011.5 hPa | 0 mm | - | - | - |
| 1777590753 | 11.11° C | 44% | 1011.5 hPa | 0 mm | - | - | - |
| 1777590157 | 11.11° C | 44% | 1011.5 hPa | 0 mm | - | - | - |
| 1777589556 | 11.67° C | 42% | 1011.6 hPa | 0 mm | - | - | - |
| 1777588953 | 12.22° C | 46% | 1011.7 hPa | 0 mm | - | - | - |
| 1777588353 | 12.22° C | 41% | 1011.7 hPa | 0 mm | - | - | - |
| 1777587753 | 12.78° C | 42% | 1011.6 hPa | 0 mm | - | - | - |
| 1777587153 | 12.78° C | 44% | 1011.6 hPa | 0 mm | - | - | - |
| 1777586554 | 12.22° C | 48% | 1011.5 hPa | 0 mm | - | - | - |
| 1777585954 | 12.78° C | 43% | 1011.5 hPa | 0 mm | - | - | - |
| 1777585353 | 12.22° C | 46% | 1011.4 hPa | 0 mm | - | - | - |
| 1777584753 | 12.22° C | 46% | 1011.4 hPa | 0 mm | - | - | - |
| 1777584156 | 12.22° C | 43% | 1011.4 hPa | 0 mm | - | - | - |
| 1777583553 | 12.22° C | 45% | 1011.5 hPa | 0 mm | - | - | - |
| 1777582953 | 12.78° C | 43% | 1011.4 hPa | 0 mm | - | - | - |
| 1777582355 | 11.67° C | 44% | 1011.5 hPa | 0 mm | - | - | - |
| 1777581753 | 12.22° C | 46% | 1011.6 hPa | 0 mm | - | - | - |
* Rain latest hour (hover to see other rain measurements)
** Current wind speed in m/s (hover to see current wind gust speed)